#timestamp,LO_Frequency,Hit,StdDev 
1505772015.5,286046992.6,N
1505772035.3,286046989.3,N
1505772055.2,286046985.9,Y
1505772075.9,286046985.6,P
1505772095.7,286046985.4,N
1505772115.6,286046987.3,N
1505772135.4,286046987.7,N
1505772155.2,286046988.7,N
1505772175.0,286046991.4,N
1505772176.0,286046991.4,N
1505772195.8,286046989.9,N
1505772215.6,286046985.4,Y
1505772235.5,286046999.0,P
1505772255.3,286046999.4,N
1505772275.1,286046997.6,N
1505772295.8,286046996.2,N
1505772315.7,286046996.0,N
1505772335.5,286046995.2,N
1505772355.3,286046993.5,N
1505772375.2,286046992.7,N
1505772395.9,286046992.5,N
1505772415.7,286046993.2,N
1505772435.6,286046990.3,Y
1505772455.4,286046995.4,P
1505772475.2,286046993.7,P
1505772495.1,286046993.3,P
1505772496.0,286046993.3,Y
1505772515.8,286047000.3,P
1505772535.6,286046998.6,N
1505772555.5,286046998.8,N
1505772575.3,286046998.3,N
1505772595.1,286047000.9,N
1505772615.9,286046998.9,N
1505772635.7,286046999.0,N
1505772655.5,286046996.5,N
1505772675.4,286046995.3,N
1505772695.2,286046994.0,Y
1505772715.0,286046994.9,P
1505772715.9,286046994.9,P
1505772735.8,286046999.6,N
1505772755.6,286046997.1,N
1505772775.4,286047000.3,N
1505772795.3,286047002.8,N
1505772815.1,286046998.8,N
1505772816.0,286046998.8,N
1505772835.8,286046993.5,N
1505772855.6,286046992.1,N
1505772875.5,286046995.3,N
1505772895.3,286046996.7,N
1505772915.1,286046993.8,N
1505772935.9,286046996.4,N
1505772955.7,286046995.0,N
1505772975.5,286046996.7,N
1505772995.4,286047001.2,N
1505773015.2,286047001.2,N
1505773035.0,286047001.0,N
1505773035.9,286047001.0,N
1505773055.8,286046995.4,N
1505773075.6,286046997.2,N
1505773095.4,286046997.1,N
1505773115.3,286046996.7,N
1505773135.1,286046998.9,N
1505773136.0,286046998.9,N
1505773155.8,286047000.4,N
1505773175.6,286047000.9,N
1505773195.5,286046992.0,N
1505773215.3,286046990.9,Y
1505773235.1,286047001.1,P
1505773255.9,286047002.9,N
1505773275.7,286047008.8,P
1505773295.5,286047011.8,N
1505773315.4,286047014.4,N
1505773335.2,286047016.0,N
1505773355.0,286047016.9,N
1505773355.9,286047016.9,N
1505773375.8,286047019.5,N
1505773395.6,286047021.8,Y
1505773415.4,286047008.6,P
1505773435.3,286047013.9,P
1505773455.1,286047012.8,P
1505773475.8,286047016.7,Y
1505773495.7,286047006.2,P
1505773515.5,286047004.9,N
1505773535.3,286047007.4,N
1505773555.2,286047007.4,N
1505773575.9,286047010.5,Y
1505773595.7,286047002.1,P
1505773615.6,286047001.6,N
1505773635.4,286047003.4,N
1505773655.2,286047003.5,N
1505773675.1,286047003.0,N
1505773676.0,286047003.0,N
1505773695.8,286047002.9,N
1505773715.6,286047004.1,N
1505773735.5,286047001.7,N
1505773755.3,286047001.4,N
1505773775.1,286047007.3,Y
1505773795.9,286047003.8,P
1505773815.7,286047004.2,P
1505773835.5,286047001.6,P
1505773855.4,286047004.4,Y
1505773875.2,286047000.6,P
1505773895.0,286046998.2,N
1505773895.9,286046998.2,N
1505773915.8,286046999.5,N
1505773935.6,286046998.4,N
1505773955.4,286046996.8,N
1505773975.3,286046997.8,N
1505773995.1,286046995.5,N
1505773996.0,286046995.5,N
1505774015.8,286046994.8,N
1505774035.7,286046992.1,Y
1505774055.5,286046995.4,P
1505774075.3,286046995.3,P
1505774095.1,286046993.4,P
1505774115.9,286046996.0,N
1505774135.7,286046995.0,Y
1505774155.6,286046999.6,P
1505774175.4,286046997.4,N
1505774195.2,286046999.2,N
1505774215.1,286046994.3,Y
1505774216.0,286046994.3,P
1505774235.8,286046994.6,N
1505774255.6,286046991.1,P
1505774275.4,286046993.2,N
1505774295.3,286046990.1,Y
1505774315.1,286046999.5,P
1505774335.8,286046994.9,N
1505774355.7,286046998.6,N
1505774375.5,286047000.7,N
1505774395.3,286047000.5,N
1505774415.2,286046999.0,N
1505774435.0,286047000.3,N
1505774435.9,286047000.3,N
1505774455.7,286047002.6,N
1505774475.6,286046999.4,N
1505774495.4,286046995.4,N
1505774515.2,286046997.3,N
1505774535.1,286046998.4,N
1505774536.0,286046998.4,N
1505774555.8,286046996.2,N
1505774575.6,286046992.2,Y
1505774595.5,286046997.1,P
1505774615.3,286046993.6,P
1505774635.1,286046991.4,P
1505774655.9,286046990.8,Y
1505774675.7,286046997.9,P
1505774695.5,286046994.9,P
1505774715.4,286046997.2,N
1505774735.2,286046995.8,Y
1505774755.0,286046995.3,P
1505774755.9,286046995.3,P
1505774775.8,286046995.8,P
1505774795.6,286047000.7,N
1505774815.4,286047002.2,N
1505774835.3,286047002.8,N
1505774855.1,286046999.9,N
1505774856.0,286046999.9,N
1505774875.8,286046998.4,N
1505774895.7,286046998.0,N
1505774915.5,286046993.5,N
1505774935.3,286046996.1,N
1505774955.2,286046991.8,N
1505774975.9,286046992.5,N
1505774995.7,286046994.1,N
1505775015.5,286046994.5,N
1505775035.4,286046992.6,N
1505775055.2,286046992.0,N
1505775075.0,286046991.6,N
1505775075.9,286046991.6,N
1505775095.8,286046989.7,N
1505775115.6,286046990.3,N
1505775135.4,286046992.1,N
1505775155.3,286046992.7,N
1505775175.1,286046992.8,N
1505775176.0,286046992.8,N
1505775195.8,286046993.9,N
1505775215.7,286046997.0,N
1505775235.5,286047000.4,N
1505775255.3,286046996.5,N
1505775275.2,286046993.4,N
1505775295.9,286046993.7,N
1505775315.7,286046989.0,Y
1505775335.6,286046990.2,P
1505775355.4,286046997.0,N
1505775375.2,286047001.8,N
1505775395.1,286047008.8,N
1505775396.0,286047008.8,N
1505775415.8,286047009.9,N
1505775435.6,286047010.0,N
1505775455.4,286047016.8,N
1505775475.3,286047015.4,N
1505775495.1,286047016.3,N
1505775515.8,286047014.9,N
1505775535.7,286047015.0,N
1505775555.5,286047016.1,N
1505775575.3,286047017.5,N
1505775595.2,286047018.8,N
